Location: LDNL
(36.4545°S, 141.6685°E)
Time: 04:47:27
(UTC+11:00)

Vanguard 2 - Pass Details

Date: 20 August 2022
Orbit: 552 x 2934 km, 32.9° (Epoch: 06 October)

Event Time Altitude Azimuth Distance (km) Brightness Sun altitude
Rises 21:33:35 0° 258° (WSW) 6,309 13.0 -42.5°
Reaches altitude 10° 21:38:59 10° 267° (W) 4,948 12.2 -43.5°
Maximum altitude 21:49:19 28° 317° (NW) 2,890 10.4 -45.4°
Enters shadow 21:49:50 28° 322° (NW) 2,851 10.4 -45.5°
Drops below altitude 10° 21:56:28 10° 12° (NNE) 3,323 - -46.7°
Sets 21:59:19 0° 25° (NNE) 3,979 - -47.3°
